Wind_Speed
7 4 9 14 10 5 6 4 4 5 5 3 5 6 10 21 18 19 20 19 19 18 13 13 18 20 21 20 20 23 16 14 13 13 15 16 14 10 6 7 9 10 12 14
3 8 6 7 6 7 5 3 4 5 2 2 4 9 11 12 17 27 30 25 26 23 18 20 23 22 20 16 17 13 11 10 9 9 9 11 11 8 3 4 6 9 11 11
7 4 15 8 7 10 6 6 4 5 2 2 4 8 9 10 27 29 30 32 29 27 23 21 25 21 15 12 13 12 10 9 9 8 8 7 10 11 14 14 11 7 7 7
7 9 15 6 11 7 10 6 4 3 4 3 3 6 6 7 9 13 30 37 35 29 27 24 25 18 11 11 12 11 9 7 6 6 7 5 6 10 9 8 7 8 10 12
7 9 11 13 5 7 3 5 7 4 2 2 2 4 6 3 5 8 20 31 32 29 27 28 23 15 13 14 13 11 8 6 5 5 4 5 5 7 10 11 12 12 15 13
5 1 4 8 6 7 7 5 3 3 2 7 8 8 4 6 9 5 8 22 21 18 26 26 19 15 16 16 15 12 9 7 6 5 4 4 4 4 5 6 6 9 9 12
3 4 4 6 6 4 7 8 1 1 4 6 4 9 13 6 7 4 11 14 19 26 30 26 21 20 19 17 15 12 10 9 7 6 5 5 4 3 2 2 3 4 5 6
8 4 9 5 7 7 13 11 5 7 5 3 4 8 6 8 17 16 9 13 24 32 30 25 22 21 20 18 16 14 13 11 10 9 7 6 5 5 6 7 8 8 9 9
8 5 5 7 5 11 6 9 5 2 3 2 4 6 8 8 5 6 13 23 29 29 27 24 23 21 20 19 18 17 17 16 13 11 9 8 8 8 8 9 9 10 12 13
5 3 1 7 5 4 6 7 4 3 3 4 5 5 7 2 8 6 9 26 31 30 27 24 21 21 21 20 20 20 19 16 14 13 12 10 9 9 9 9 9 11 13 15
4 4 2 6 7 14 6 4 5 4 5 5 2 6 8 17 6 8 14 25 29 30 29 26 24 23 22 22 22 22 20 17 16 14 13 12 11 11 12 13 14 15 17 18
12 4 5 9 3 4 18 12 11 6 5 5 1 7 3 9 5 5 8 18 28 32 30 27 26 25 26 25 25 23 21 20 18 17 16 14 14 14 14 15 15 16 17 17
12 6 3 1 4 3 6 13 12 10 2 6 4 11 6 14 7 9 9 13 22 31 30 27 26 27 26 26 26 26 24 23 22 20 18 18 17 16 15 15 15 15 14 13
23 4 16 17 11 8 9 13 19 16 7 11 15 26 17 9 8 9 7 10 15 29 30 30 30 29 27 27 26 26 27 27 25 22 21 19 17 16 14 14 14 13 13 11
13 12 11 15 3 8 10 15 17 20 24 11 23 21 24 16 8 20 27 26 12 23 34 35 33 31 30 30 30 30 30 29 27 25 22 20 18 15 14 12 12 11 10 9
9 6 8 14 10 9 4 10 18 23 23 18 24 21 20 18 10 11 17 22 22 22 26 31 35 35 34 34 34 33 32 30 29 26 24 20 17 15 14 12 11 10 10 9
13 9 6 14 7 5 7 21 16 13 20 18 19 26 23 20 16 21 25 29 35 35 31 33 36 37 39 40 40 38 36 32 30 28 25 22 19 16 14 12 11 10 10 9
9 13 7 8 7 10 9 8 20 21 19 18 18 20 24 23 31 26 26 31 29 28 32 34 36 39 40 43 43 40 37 34 31 29 26 23 20 18 16 14 12 11 11 9
15 11 8 7 12 2 8 7 10 13 21 20 20 26 33 33 28 26 35 29 29 31 33 35 37 39 35 39 42 41 38 34 31 29 26 23 21 19 17 15 13 12 10 9
12 16 12 3 10 10 11 16 11 6 7 17 25 20 20 28 7 16 37 27 24 23 20 25 31 35 35 39 41 40 35 33 31 29 26 24 22 20 17 15 13 12 10 9
3 9 14 11 4 5 8 5 12 10 12 27 20 30 29 11 20 30 25 19 20 21 21 23 25 28 32 33 35 34 33 33 31 28 25 23 20 18 16 14 12 11 9 8
2 4 4 2 4 8 11 3 11 11 6 19 13 23 32 32 29 26 23 23 21 19 20 21 23 25 26 28 29 29 29 29 26 27 26 23 20 18 15 13 11 9 8 8
6 7 4 7 6 8 19 18 28 27 19 20 18 16 15 17 22 21 21 22 23 19 18 20 23 24 25 27 27 28 27 25 25 23 22 22 20 16 13 13 11 10 8 8
5 2 3 4 9 11 11 19 21 13 18 25 28 29 26 21 21 22 23 23 22 21 21 22 24 24 25 26 28 25 24 24 23 21 19 18 17 14 14 12 10 9 9 10
5 7 8 4 12 3 12 21 25 26 24 24 24 25 26 23 24 22 22 22 23 24 24 24 24 24 25 26 24 22 23 23 21 19 18 16 14 14 13 11 10 10 11 12
8 6 5 8 5 10 25 28 28 27 29 29 27 26 26 24 24 23 23 23 24 25 25 24 24 23 23 24 22 20 20 20 19 16 15 16 16 13 11 12 11 11 11 11
Wind_Direction
192 150 192 191 192 155 148 164 230 268 255 180 232 244 257 265 275 252 252 246 246 241 233 255 265 251 247 252 267 281 270 269 268 266 260 256 258 254 255 259 280 293 289 280
147 226 203 178 189 212 234 195 236 296 115 127 281 273 269 261 259 248 243 234 237 234 243 257 256 247 244 254 274 262 260 263 265 268 266 256 244 232 196 233 226 245 284 300
166 237 186 199 188 203 213 194 203 205 351 344 334 282 250 246 238 242 240 237 235 235 232 231 234 232 232 249 257 248 252 260 269 274 271 264 234 221 229 236 241 256 263 266
227 246 186 191 214 176 217 183 209 250 48 240 100 289 276 267 253 234 233 237 236 235 239 220 219 214 220 236 234 232 241 250 266 273 276 266 219 206 199 193 203 226 264 275
209 197 186 199 179 174 194 159 198 197 262 332 258 305 266 256 276 255 229 229 232 234 229 206 199 204 219 219 219 223 227 239 248 253 250 252 238 225 231 234 238 239 258 263
207 139 161 172 170 157 149 94 71 79 111 254 218 202 222 217 227 243 238 229 230 212 198 188 194 213 213 210 213 214 215 216 206 196 180 161 164 172 195 212 222 236 249 250
166 205 182 152 147 128 134 124 144 221 211 231 235 210 253 266 263 207 219 221 216 191 186 193 206 212 210 208 209 210 212 211 205 197 192 188 200 205 222 258 267 266 268 268
171 188 166 186 182 181 184 171 164 200 207 233 191 225 261 227 250 257 201 187 180 181 190 197 204 210 206 208 210 213 213 218 227 228 229 235 249 260 276 289 291 293 293 294
172 235 127 175 166 157 180 199 166 79 34 59 232 290 304 248 264 140 161 166 174 184 191 199 208 209 210 213 213 217 224 228 227 227 232 243 257 273 282 284 284 286 291 294
186 137 24 184 151 228 168 155 199 155 186 250 252 252 233 210 234 204 173 180 187 189 195 204 211 216 221 220 221 226 228 227 227 233 244 256 269 278 285 289 293 294 294 293
206 135 232 141 199 189 177 182 204 171 172 191 239 253 216 220 190 233 229 202 195 194 203 208 216 227 229 227 228 232 231 230 233 238 246 255 266 276 280 283 286 290 291 291
194 151 169 197 170 267 219 201 177 191 216 222 237 257 185 141 157 196 254 227 210 210 213 215 223 227 227 229 232 236 232 232 236 242 248 250 256 261 266 273 280 285 288 289
181 199 148 170 285 349 195 225 217 228 59 215 180 254 236 255 316 312 249 241 224 212 214 221 224 229 232 235 239 239 237 236 238 241 243 245 248 254 260 270 278 282 285 286
176 166 210 220 228 145 200 192 214 210 218 225 225 254 249 250 276 307 302 239 221 215 221 228 227 233 237 240 244 245 242 238 239 240 240 243 246 251 257 266 274 278 279 275
177 219 206 239 131 179 199 197 199 212 227 210 245 241 253 253 251 261 265 270 245 214 219 225 232 240 242 245 246 248 247 242 241 240 239 241 244 249 255 261 264 264 263 259
183 228 189 233 216 204 169 200 207 213 228 235 252 266 261 259 243 250 270 283 274 260 247 250 248 239 244 248 249 249 249 245 244 243 242 243 245 248 252 254 254 251 247 243
183 201 160 237 171 138 221 218 212 217 227 221 234 244 262 265 257 253 254 257 260 267 273 268 261 259 253 253 252 250 248 244 244 244 243 243 242 242 242 240 239 237 236 237
201 193 191 238 127 216 232 195 207 216 229 225 241 256 254 257 265 258 257 255 261 263 265 267 271 265 257 253 247 244 242 240 240 239 238 237 235 234 232 231 230 230 233 237
226 191 217 220 218 336 304 236 184 190 234 228 223 241 255 260 267 281 270 266 267 272 275 271 268 268 261 254 249 242 236 234 235 235 234 233 231 230 228 225 224 224 231 239
234 215 205 163 222 220 228 236 201 99 252 224 218 234 245 257 267 268 276 280 278 278 273 275 271 265 258 250 241 237 234 235 232 232 230 229 225 222 220 220 220 224 229 234
180 193 196 204 207 276 247 240 142 167 230 251 220 224 235 226 238 255 271 275 280 282 274 269 261 258 251 238 231 231 232 234 233 231 227 223 220 219 217 216 217 220 227 241
245 206 224 187 217 240 208 114 191 221 225 251 246 234 234 248 257 261 269 276 279 277 274 266 251 239 232 226 227 229 230 231 230 227 221 217 214 213 214 217 224 233 242 254
195 203 202 184 211 235 194 216 234 242 247 238 243 243 241 256 255 261 269 268 270 265 259 256 242 233 225 226 228 230 230 229 225 223 218 208 203 208 214 220 226 234 246 263
233 158 226 43 256 247 249 238 248 261 254 254 259 267 269 258 255 263 266 263 254 253 254 245 235 229 227 226 229 227 226 224 217 212 213 214 200 206 219 225 229 241 259 271
213 129 208 251 264 34 259 244 249 259 258 249 249 253 261 264 264 260 256 254 259 262 253 244 237 232 228 229 228 223 215 209 204 201 208 216 217 213 220 230 243 258 268 274
201 191 181 233 220 216 253 261 263 267 269 269 263 261 260 261 261 258 255 256 256 252 246 240 234 228 224 222 221 217 209 202 195 196 209 221 226 224 231 243 250 261 268 273
Height
1530 1534 1536 1532 1532 1534 1538 1543 1547 1542 1536 1537 1540 1541 1537 1536 1536 1536 1535 1535 1536 1538 1541 1541 1542 1542 1544 1545 1545 1545 1545 1544 1543 1542 1542 1542 1542 1543 1543 1544 1544 1545 1546 1547
1531 1531 1529 1531 1533 1536 1538 1541 1545 1541 1535 1538 1541 1540 1535 1534 1532 1531 1530 1531 1530 1533 1536 1538 1538 1539 1540 1540 1540 1541 1541 1541 1540 1538 1538 1538 1539 1540 1541 1540 1540 1542 1544 1544
1525 1524 1526 1529 1531 1535 1537 1541 1542 1544 1539 1538 1539 1537 1532 1523 1521 1523 1523 1523 1524 1526 1530 1532 1533 1534 1535 1536 1537 1538 1538 1538 1537 1535 1535 1535 1535 1536 1537 1537 1537 1538 1539 1538
1523 1521 1523 1526 1528 1530 1537 1534 1537 1541 1546 1554 1543 1554 1530 1520 1518 1515 1514 1514 1516 1520 1523 1525 1527 1529 1531 1532 1534 1535 1535 1535 1534 1533 1533 1532 1533 1533 1534 1534 1534 1535 1536 1536
1518 1518 1522 1523 1524 1527 1532 1531 1537 1539 1546 1548 1545 1556 1529 1518 1516 1510 1504 1506 1509 1513 1516 1518 1522 1526 1528 1529 1531 1532 1532 1533 1532 1532 1531 1531 1531 1531 1532 1532 1532 1532 1532 1532
1515 1514 1515 1515 1520 1523 1528 1534 1538 1542 1548 1550 1545 1549 1528 1517 1507 1502 1500 1502 1505 1508 1511 1515 1519 1522 1524 1526 1528 1530 1530 1531 1530 1530 1530 1530 1530 1529 1529 1529 1529 1528 1528 1528
1515 1515 1513 1513 1520 1522 1526 1538 1558 1562 1555 1549 1532 1540 1507 1504 1498 1499 1498 1498 1501 1505 1508 1511 1515 1517 1520 1523 1525 1527 1528 1529 1528 1528 1528 1528 1529 1528 1528 1527 1527 1526 1526 1526
1515 1524 1512 1511 1514 1518 1520 1528 1540 1550 1547 1539 1532 1529 1509 1495 1493 1493 1494 1495 1498 1502 1505 1509 1512 1515 1518 1520 1523 1525 1526 1526 1527 1525 1527 1527 1527 1526 1526 1525 1524 1524 1523 1523
1506 1506 1501 1505 1508 1512 1522 1524 1523 1533 1554 1546 1529 1515 1500 1493 1491 1492 1491 1494 1498 1501 1504 1507 1510 1513 1516 1518 1520 1521 1522 1522 1522 1522 1523 1523 1523 1523 1523 1522 1521 1520 1520 1519
1493 1505 1502 1504 1507 1510 1512 1516 1528 1535 1549 1555 1525 1520 1505 1493 1492 1492 1493 1492 1493 1497 1501 1504 1507 1510 1512 1514 1516 1517 1518 1518 1518 1518 1518 1518 1518 1518 1518 1518 1518 1517 1517 1516
1490 1494 1509 1504 1505 1505 1512 1515 1515 1517 1530 1535 1536 1512 1487 1482 1487 1489 1488 1489 1491 1493 1495 1499 1503 1506 1508 1509 1511 1512 1513 1514 1514 1514 1513 1513 1514 1514 1514 1514 1514 1513 1512 1511
1483 1490 1508 1499 1499 1500 1499 1499 1504 1511 1521 1517 1516 1504 1480 1480 1484 1485 1485 1486 1488 1490 1492 1495 1498 1500 1502 1504 1506 1507 1508 1509 1509 1509 1509 1509 1509 1509 1509 1509 1508 1508 1508 1507
1478 1488 1505 1501 1503 1503 1499 1503 1500 1504 1511 1512 1518 1481 1475 1477 1481 1481 1483 1484 1484 1487 1490 1491 1493 1493 1496 1498 1499 1501 1502 1503 1503 1504 1504 1504 1504 1504 1504 1503 1503 1503 1502 1501
1470 1478 1473 1473 1472 1490 1499 1496 1496 1497 1505 1499 1498 1475 1475 1480 1480 1480 1482 1482 1482 1483 1484 1485 1487 1488 1490 1491 1493 1494 1495 1496 1497 1498 1499 1499 1499 1499 1498 1498 1498 1498 1498 1498
1465 1469 1473 1467 1472 1476 1478 1483 1492 1496 1486 1495 1475 1481 1468 1475 1478 1478 1479 1480 1481 1480 1480 1480 1480 1482 1483 1483 1484 1485 1487 1489 1491 1492 1492 1493 1493 1493 1493 1493 1493 1494 1494 1494
1460 1468 1470 1469 1471 1476 1480 1482 1480 1478 1480 1486 1476 1475 1460 1466 1471 1473 1474 1476 1476 1476 1476 1476 1475 1475 1475 1475 1476 1478 1480 1482 1483 1485 1486 1487 1488 1488 1488 1488 1489 1489 1490 1490
1453 1457 1467 1461 1469 1475 1481 1471 1472 1475 1470 1471 1477 1458 1455 1456 1462 1465 1467 1468 1466 1467 1468 1467 1467 1467 1468 1468 1468 1469 1471 1474 1476 1478 1480 1481 1482 1482 1483 1484 1484 1484 1485 1486
1444 1450 1459 1457 1469 1466 1452 1450 1456 1460 1459 1462 1462 1454 1447 1450 1450 1455 1457 1456 1459 1460 1459 1458 1457 1457 1458 1458 1458 1461 1463 1465 1468 1470 1472 1474 1475 1476 1477 1479 1479 1480 1481 1482
1440 1445 1449 1448 1451 1453 1450 1443 1446 1452 1448 1450 1451 1443 1443 1444 1445 1444 1445 1448 1450 1450 1449 1448 1449 1449 1449 1451 1451 1452 1455 1458 1460 1462 1465 1468 1470 1471 1472 1473 1474 1475 1477 1478
1437 1437 1440 1450 1442 1445 1432 1429 1434 1441 1452 1431 1433 1439 1439 1437 1448 1435 1434 1438 1440 1440 1440 1440 1440 1439 1439 1441 1442 1445 1448 1451 1453 1455 1458 1462 1463 1464 1466 1468 1469 1471 1471 1472
1430 1426 1424 1429 1440 1447 1427 1425 1429 1450 1434 1414 1428 1429 1429 1433 1430 1430 1429 1430 1432 1432 1432 1433 1431 1431 1432 1434 1437 1440 1442 1443 1446 1450 1453 1455 1457 1459 1462 1463 1465 1464 1466 1469
1432 1428 1425 1429 1434 1437 1415 1425 1428 1414 1417 1417 1417 1419 1421 1423 1423 1424 1425 1425 1425 1425 1426 1426 1427 1426 1426 1429 1432 1436 1439 1441 1445 1446 1446 1449 1452 1455 1457 1458 1459 1461 1462 1463
1430 1426 1428 1429 1422 1411 1406 1406 1409 1411 1413 1414 1416 1417 1418 1419 1418 1419 1419 1420 1419 1419 1420 1419 1422 1423 1423 1424 1426 1431 1434 1438 1440 1446 1449 1445 1445 1450 1453 1454 1454 1456 1457 1458
1408 1410 1415 1418 1408 1405 1404 1404 1406 1408 1410 1411 1411 1410 1410 1412 1414 1413 1413 1412 1412 1413 1413 1415 1418 1419 1421 1421 1421 1425 1429 1433 1436 1439 1446 1451 1444 1444 1449 1451 1450 1451 1451 1453
1405 1404 1410 1413 1403 1403 1403 1402 1402 1401 1402 1403 1404 1404 1404 1405 1405 1406 1406 1406 1406 1407 1408 1410 1412 1414 1416 1418 1421 1424 1425 1427 1432 1435 1443 1449 1448 1443 1445 1447 1448 1446 1446 1448
1401 1399 1403 1399 1394 1396 1392 1394 1395 1395 1396 1396 1397 1397 1396 1396 1397 1398 1398 1398 1398 1398 1400 1403 1405 1408 1410 1413 1417 1422 1426 1428 1428 1433 1440 1445 1446 1444 1442 1442 1443 1443 1443 1442